Miscellaneous Local Product
Issued by NWS North Platte, NE

Home | Current Version | Previous Version | Text Only | Print | Product List | Glossary On
Versions: 1 2 3 4 5 6 7 8 9 10 11 12 13 14 15 16 17 18 19 20 21 22 23 24 25 26 27 28 29 30 31 32 33 34 35 36 37 38 39 40 41 42 43 44 45 46 47 48 49 50
000
AXUS43 KLBF 031210
MISLBF


WESTERN AND NORTH CENTRAL NEBRASKA HOURLY WEATHER ROUNDUP
NATIONAL WEATHER SERVICE NORTH PLATTE NE
700 AM CDT FRI JUL 03 2015

***STATIONS NOT REPORTING VARIABLES SUCH AS SKY/WEATHER OR
PRESSURE ARE PROVIDED BY THE NEBRASKA DEPARTMENT OF
ROADS...RAWS...AND APRS NETWORKS...AND ARE NOT UNDER
NATIONAL WEATHER SERVICE QUALITY CONTROL***

...OBSERVATIONS IN AND NEAR THE EASTERN PANHANDLE OF NEBRASKA...

CITY           SKY/WX    TMP DP  RH WIND       PRES   REMARKS
PINE RIDGE     CLEAR     54  52  93 CALM      30.11R FOG
CHADRON        MOCLDY    57  55  93 SW3       30.10S FOG
ALLIANCE       PTCLDY    58  57  97 NW3       30.12R FOG
SIDNEY         PTCLDY    59  58  96 NW5       30.16R
WHITECLAY        N/A     53  52  95 E5          N/A
CRESCENT LAKE    N/A     62  61  97 CALM        N/A
BIG SPRINGS      N/A     62  60  95 CALM        N/A
$$

...OBSERVATIONS IN NORTH CENTRAL NEBRASKA...

CITY           SKY/WX    TMP DP  RH WIND       PRES   REMARKS
VALENTINE      PTCLDY    57  55  93 NW3       30.06R
THEDFORD       PTCLDY    60  59  97 CALM      30.09R FOG
AINSWORTH      FOG       56  56 100 CALM      30.06R VSB 1
O`NEILL        FOG       60  60  99 CALM      30.04S VSB<1/4
ORD            CLOUDY    60  58  92 CALM      30.03R
BROKEN BOW     CLOUDY    64  61  90 NW3       30.06R
VALENTINE NWR    N/A     58  58  99 CALM        N/A
SPRINGVIEW       N/A     59  58  95 CALM        N/A
HALSEY           N/A     58  58 100 CALM        N/A
BREWSTER         N/A     67  66  97 CALM        N/A
ROSE             N/A     74  73  99 CALM        N/A
NEWPORT          N/A     64  63  99 W3          N/A
SARGENT          N/A     63  61  94 CALM        N/A
CHAMBERS         N/A     61  60  97 S3          N/A
EWING            N/A     62  61  97 CALM        N/A
$$

...OBSERVATIONS IN SOUTHWEST NEBRASKA AND FAR NORTHEAST COLORADO...

CITY           SKY/WX    TMP DP  RH WIND       PRES   REMARKS
WRAY           FAIR      60  58  93 W5        30.11S
HOLYOKE        PTSUNNY   63  59  88 CALM      30.13S
IMPERIAL       MOCLDY    63  58  83 W5        30.10R
OGALLALA       PTCLDY    60  59  98 CALM      30.11R FOG
NORTH PLATTE   CLEAR     56  55  97 CALM      30.08R
MCCOOK         CLEAR     61  59  93 CALM      30.06R FOG
LEXINGTON      FOG       63  63  98 CALM      30.06R VSB 1/2
PAXTON           N/A     60  58  93 CALM        N/A
GOTHENBURG       N/A     63  60  88 CALM        N/A
CALLAWAY         N/A     63  62  97 CALM        N/A
$$

...NORTH PLATTE AREA...

CITY           SKY/WX    TMP DP  RH WIND       PRES   REMARKS
AIRPORT        CLEAR     56  55  97 CALM      30.08R
DOWNTOWN         N/A     60  58  92 CALM        N/A
HILLCREST        N/A     59  57  92 N3          N/A
$$

...SOME WEATHER OBSERVATIONS FROM AROUND THE REGION...

CITY           SKY/WX    TMP DP  RH WIND       PRES   REMARKS
DENVER         PTCLDY    55  53  93 E7        30.20R
LARAMIE        CLEAR     46  45  96 SE7       30.29R
CHEYENNE       CLEAR     55  52  89 N6        30.24R
SCOTTSBLUFF    CLOUDY    62  59  90 NE3       30.13F
RAPID CITY     CLEAR     57  55  93 W5        30.09R
PIERRE         PTCLDY    62  61  96 CALM      30.00R FOG
WINNER         FAIR      62  59  90 CALM      30.03R FOG
SIOUX FALLS    FOG       53  52  96 CALM      30.02R VSB 1/4
OMAHA          SUNNY     57  56  96 N6        30.01R
GRAND ISLAND   CLOUDY    64  62  93 N5        30.04R FOG
KANSAS CITY    CLOUDY    65  62  90 NE7       29.95R
WICHITA        PTCLDY    70  66  87 NW8       29.93R
HAYS           CLEAR     61  54  77 NW3       30.03R
LIBERAL        CLOUDY    66  63  88 N5        30.05S
GOODLAND       PTCLDY    61  58  90 NW7       30.12R
$$



USA.gov is the U.S. government's official web portal to all federal, state and local government web resources and services.